Terminal Aerodrome Forecast
Issued by NWS

Home | Current Version | Previous Version | Text Only | Print | Product List | Glossary On
Versions: 1 2 3 4 5 6 7 8 9 10 11 12 13 14 15 16 17 18 19 20 21 22 23 24 25 26 27 28 29
000
FTUS42 KGSP 180905 AAA
TAFAND
TAF AMD
KAND 180905Z 1809/1906 00000KT 5SM BR OVC002
      TEMPO 1809/1813 1SM -SHRA BR SCT002 OVC090
     FM181400 05003KT P6SM BKN003
     FM181600 07005KT P6SM BKN020
     FM181800 08006KT P6SM BKN025
     FM182000 09006KT P6SM BKN050
     FM190300 08006KT P6SM -SHRA OVC025=

USA.gov is the U.S. government's official web portal to all federal, state and local government web resources and services.